TimeEDT,TemperatureF,Dew PointF,Humidity,Sea Level PressureIn,VisibilityMPH,Wind Direction,Wind SpeedMPH,Gust SpeedMPH,PrecipitationIn,Events,Conditions,WindDirDegrees,DateUTC
12:56 AM,71.1,66.9,87,29.80,9.0,Calm,Calm,-,N/A,,Mostly Cloudy,0,2013-06-27 04:56:00
1:56 AM,71.1,66.9,87,29.78,9.0,NNW,3.5,-,N/A,,Clear,340,2013-06-27 05:56:00
2:56 AM,70.0,66.9,90,29.77,7.0,Calm,Calm,-,N/A,,Partly Cloudy,0,2013-06-27 06:56:00
3:56 AM,69.1,66.0,90,29.76,6.0,NNW,4.6,-,N/A,,Clear,330,2013-06-27 07:56:00
4:56 AM,70.0,66.0,87,29.77,7.0,NNW,3.5,-,N/A,,Mostly Cloudy,330,2013-06-27 08:56:00
5:56 AM,70.0,66.9,90,29.79,5.0,ESE,4.6,-,N/A,,Mostly Cloudy,120,2013-06-27 09:56:00
6:56 AM,70.0,66.9,90,29.80,5.0,Calm,Calm,-,N/A,,Mostly Cloudy,0,2013-06-27 10:56:00
7:56 AM,71.1,68.0,90,29.80,6.0,ESE,3.5,-,N/A,,Mostly Cloudy,110,2013-06-27 11:56:00
8:56 AM,73.0,68.0,84,29.79,6.0,East,4.6,-,N/A,,Mostly Cloudy,100,2013-06-27 12:56:00
9:56 AM,77.0,68.0,74,29.78,8.0,ENE,4.6,-,N/A,,Scattered Clouds,60,2013-06-27 13:56:00
10:56 AM,79.0,69.1,72,29.77,10.0,SSE,6.9,-,N/A,,Mostly Cloudy,160,2013-06-27 14:56:00
11:56 AM,80.1,70.0,71,29.76,10.0,SE,6.9,-,N/A,,Partly Cloudy,130,2013-06-27 15:56:00
12:56 PM,81.0,71.1,72,29.75,10.0,Variable,6.9,-,N/A,,Mostly Cloudy,0,2013-06-27 16:56:00
1:56 PM,80.1,68.0,67,29.73,6.0,ESE,9.2,-,N/A,,Haze,110,2013-06-27 17:56:00
2:56 PM,77.0,69.1,76,29.74,6.0,ESE,9.2,-,N/A,,Haze,110,2013-06-27 18:56:00
3:56 PM,79.0,69.1,72,29.73,7.0,ESE,9.2,-,N/A,,Haze,110,2013-06-27 19:56:00
4:48 PM,78.8,69.8,74,29.72,7.0,ESE,9.2,-,N/A,,Haze,110,2013-06-27 20:48:00
4:56 PM,77.0,70.0,79,29.71,6.0,ESE,9.2,-,N/A,,Haze,120,2013-06-27 20:56:00
5:21 PM,78.8,69.8,74,29.71,6.0,SE,9.2,-,N/A,,Haze,130,2013-06-27 21:21:00
5:56 PM,78.1,70.0,76,29.68,6.0,ESE,9.2,-,N/A,,Haze,120,2013-06-27 21:56:00
6:56 PM,77.0,69.1,76,29.69,6.0,ESE,10.4,-,N/A,,Haze,120,2013-06-27 22:56:00
7:56 PM,73.9,69.1,85,29.68,6.0,SE,11.5,19.6,N/A,,Haze,130,2013-06-27 23:56:00
8:56 PM,73.0,69.1,87,29.64,6.0,East,9.2,-,N/A,,Haze,90,2013-06-28 00:56:00
9:16 PM,73.4,68.0,83,29.64,6.0,ESE,12.7,17.3,N/A,,Haze,110,2013-06-28 01:16:00
9:33 PM,73.4,68.0,83,29.63,6.0,ESE,15.0,20.7,N/A,Thunderstorm,Thunderstorm,110,2013-06-28 01:33:00
9:44 PM,71.6,69.8,94,29.62,1.0,East,12.7,20.7,0.05,Rain-Thunderstorm,Thunderstorms and Rain,90,2013-06-28 01:44:00
9:56 PM,71.1,69.1,93,29.62,1.0,ESE,9.2,-,0.21,Rain-Thunderstorm,Thunderstorms and Rain,110,2013-06-28 01:56:00
10:40 PM,69.8,69.8,100,29.61,1.0,ESE,15.0,23.0,0.66,Rain-Thunderstorm,Thunderstorms and Rain,110,2013-06-28 02:40:00
10:56 PM,72.0,70.0,93,29.57,1.0,SE,16.1,21.9,0.76,Rain-Thunderstorm,Thunderstorms and Rain,130,2013-06-28 02:56:00
10:58 PM,71.6,71.6,100,29.59,1.0,SE,15.0,21.9,0.00,Rain,Light Rain,130,2013-06-28 02:58:00
11:56 PM,73.0,71.1,93,29.56,4.0,South,9.2,16.1,0.01,,Overcast,170,2013-06-28 03:56:00